STARLINK-5080 (55437 NORAD) Tracking and Keplerian Element Data

This shows tracking and keplerian element data for the satellite.

Feedback or suggestion? Click here.




ElementValue
Catalog55437
NameSTARLINK-5080
Epoch Orbit1468
Epoch Day126.92827514
Epoch Year2023
RAAN200.9591
Inclination69.9998
Eccentricity0.0004629
Argument of Perigee280.8431
Mean Anonmoly79.2208
Mean Motion14.99409467
Decay Rate0.00020725
L11 55437U 23014AY 23126.92827514 .00020725 00000+0 16915-2 0 9995
L22 55437 69.9998 200.9591 0004629 280.8431 79.2208 14.99409467 14689



Live tracking and technical data element details for STARLINK-5080 (NORAD 55437). STARLINK-5080 can be tracked NOW for your location showing map with azimuth and elevation plus other details from your city location.







IsCatalogInMostPopularTable: catalog: 55437, numindb: -1

Insert: records affected: 1


GetName: 55437 STARLINK-5080

Hit Count: inserted at: Mon, 05 Jun 2023 20:14:39 GMT